Weather History for Greensboro, NC

Change the Weather History Date:

Thursday, September 19, 2013

  Actual Average Record
Temperature  
Mean Temperature 67 °F 69 °F  
Max Temperature 75 °F 79 °F 95 °F (1915)
Min Temperature 58 °F 59 °F 41 °F (1984)
Degree Days  
Heating Degree Days 0 1  
Month to date heating degree days 2 7  
Since 1 July heating degree days 4 8  
Cooling Degree Days 2 5  
Month to date cooling degree days 153 143  
Year to date cooling degree days 1312 1405  
Growing Degree Days 16 (Base 50)    
Moisture  
Dew Point 56 °F    
Average Humidity 72    
Maximum Humidity 87    
Minimum Humidity 57    
Precipitation  
Precipitation 0.00 in 0.14 in 3.66 in (1928)
Month to date precipitation 1.42 2.84  
Year to date precipitation 39.81 31.63  
Sea Level Pressure  
Sea Level Pressure 30.14 in    
Wind  
Wind Speed 4 mph (SW)    
Max Wind Speed 9 mph    
Max Gust Speed 16 mph    
Visibility 10 miles    
Events      
T = Trace of Precipitation, MM = Missing Value Source: NWS Daily Summary

Daily Weather History Graph

Daily Weather History Graph

Search for Another Location

Airport:

Trip Planner

Search our weather history database for the weather conditions in past years. The results will help you decide how hot, cold, wet, or windy it might be!

Date:

Astronomy

Sep. 19, 2013 Rise Set
Actual Time 7:05 AM EDT 7:20 PM EDT
Civil Twilight 6:39 AM EDT 7:46 PM EDT
Nautical Twilight 6:09 AM EDT 8:16 PM EDT
Astronomical Twilight 5:39 AM EDT 8:46 PM EDT
Moon 7:20 PM EDT (9/19) 7:11 AM EDT (9/19)
Length of Visible Light 13h 06m
Length of Day
12h 15m
Full, 100% of the Moon is Illuminated
Sep 19
Full
Sep 26
Last Quarter
Oct 4
New
Oct 11
First Quarter
Oct 18
Full

Hourly Weather History & Observations

Time (EDT) Temp. Dew Point Humidity Pressure Visibility Wind Dir Wind Speed Gust Speed Precip Events Conditions
12:54 AM 61.0 °F 53.1 °F 75% 30.18 in 10.0 mi Calm Calm - N/A   Mostly Cloudy
1:54 AM 60.1 °F 53.1 °F 78% 30.18 in 10.0 mi Calm Calm - N/A   Scattered Clouds
2:54 AM 59.0 °F 53.1 °F 81% 30.17 in 10.0 mi Calm Calm - N/A   Mostly Cloudy
3:54 AM 59.0 °F 53.1 °F 81% 30.16 in 10.0 mi Calm Calm - N/A   Scattered Clouds
4:54 AM 60.1 °F 54.0 °F 80% 30.16 in 10.0 mi Calm Calm - N/A   Overcast
5:54 AM 61.0 °F 51.1 °F 70% 30.17 in 10.0 mi Calm Calm - N/A   Overcast
6:54 AM 60.1 °F 51.1 °F 72% 30.17 in 10.0 mi SSW 3.5 mph - N/A   Overcast
7:54 AM 61.0 °F 52.0 °F 72% 30.17 in 10.0 mi Calm Calm - N/A   Overcast
8:54 AM 63.0 °F 50.0 °F 63% 30.18 in 10.0 mi SW 4.6 mph - N/A   Overcast
9:54 AM 64.0 °F 52.0 °F 65% 30.18 in 10.0 mi SW 6.9 mph - N/A   Overcast
10:54 AM 66.0 °F 52.0 °F 60% 30.19 in 10.0 mi SW 8.1 mph - N/A   Mostly Cloudy
11:54 AM 69.1 °F 53.1 °F 57% 30.18 in 10.0 mi WSW 5.8 mph - N/A   Mostly Cloudy
12:54 PM 72.0 °F 55.0 °F 55% 30.16 in 10.0 mi Variable 3.5 mph - N/A   Mostly Cloudy
1:54 PM 73.9 °F 57.0 °F 55% 30.14 in 10.0 mi WSW 6.9 mph - N/A   Mostly Cloudy
2:54 PM 72.0 °F 57.0 °F 59% 30.13 in 10.0 mi WSW 4.6 mph - N/A   Overcast
3:54 PM 73.0 °F 59.0 °F 61% 30.11 in 10.0 mi SW 8.1 mph - N/A   Overcast
4:54 PM 73.0 °F 59.0 °F 61% 30.10 in 10.0 mi WSW 5.8 mph - N/A   Mostly Cloudy
5:54 PM 73.0 °F 60.1 °F 64% 30.09 in 10.0 mi South 4.6 mph - N/A   Overcast
6:54 PM 72.0 °F 61.0 °F 68% 30.09 in 10.0 mi WSW 5.8 mph - N/A   Mostly Cloudy
7:54 PM 69.1 °F 60.1 °F 73% 30.09 in 10.0 mi WSW 4.6 mph - N/A   Mostly Cloudy
8:54 PM 68.0 °F 62.1 °F 81% 30.10 in 10.0 mi SW 4.6 mph - N/A   Mostly Cloudy
9:54 PM 66.9 °F 61.0 °F 81% 30.10 in 10.0 mi SW 3.5 mph - N/A   Mostly Cloudy
10:54 PM 66.9 °F 62.1 °F 84% 30.08 in 10.0 mi WSW 4.6 mph - N/A   Mostly Cloudy
11:54 PM 68.0 °F 62.1 °F 81% 30.08 in 10.0 mi Calm Calm - N/A   Overcast